Location: Unspecified
(0.0000°N, 0.0000°E)
Time: 11:14:10
(UTC+00:00)

A-11 Canister half - Pass Details

Date: 28 November 2019
Orbit: 1526 x 1683 km, 47.3° (Epoch: 13 December)

Event Time Altitude Azimuth Distance (km) Brightness Sun altitude
Rises 19:55:51 0° 287° (WNW) 4,695 12.2 -29.5°
Reaches altitude 10° 19:59:58 10° 272° (W) 3,699 11.7 -30.5°
Maximum altitude 20:06:21 21° 227° (SW) 2,944 11.1 -31.9°
Drops below altitude 10° 20:12:47 10° 183° (S) 3,695 11.3 -33.4°
Sets 20:16:58 0° 167° (SSE) 4,689 11.7 -34.3°
